Location: Perryvale
(54.4667°N, 113.3833°W)
Time: 00:11:28
(UTC+00:00)

Vanguard 1 - Pass Details

Date: 21 May 2024
Orbit: 652 x 3825 km, 34.2° (Epoch: 13 June)

Event Time Altitude Azimuth Distance (km) Brightness Sun altitude
Rises 10:00:08 0° 270° (W) 6,584 13.9 -8.6°
Reaches altitude 10° 10:05:28 10° 257° (WSW) 6,007 13.6 -8.2°
Maximum altitude 10:19:03 24° 214° (SW) 5,640 13.3 -6.9°
Drops below altitude 10° 10:34:40 10° 172° (S) 6,880 14.0 -5.4°
Sets 10:41:37 0° 160° (SSE) 7,719 14.4 -4.8°
